Vertical_Velocity
-3 -3 -3 1 -1 -4 -6 -2 -5 -2 -6 -1 0 -3 -1 -0 1 1 -2 -3 1 5 -1 -2 -2 -0 0 0 2 3 -1 2 1 1 2 2 3 3 -1 1 -0 1 -0 4 2 1 1 0 -1
2 -0 -1 3 -5 1 -2 -4 -7 -5 -4 -4 -0 -4 -2 -1 -2 3 -2 -2 -3 3 2 0 1 -6 -0 -1 1 3 1 2 6 4 -1 -5 2 4 1 -0 0 1 -0 2 1 1 -0 0 -2
-7 3 6 3 -3 -2 -1 -1 -2 -1 -2 -3 -5 1 1 -2 0 1 0 -3 -3 1 4 2 -1 -0 -7 -5 -1 -1 1 9 4 -4 -3 2 4 2 1 1 1 0 2 -0 1 -1 0 0 -3
-3 -6 -0 -1 6 3 0 -0 -0 1 -5 -11 -4 -3 3 -4 -2 -0 -1 -1 -2 -3 -0 1 3 0 -1 -1 2 3 2 -2 1 3 2 -4 3 2 -1 2 0 -2 -1 -2 3 -1 1 -0 0
1 -3 -2 -0 -3 -0 -11 -0 -4 0 -4 -6 -4 -3 -2 -2 -3 0 0 -1 0 1 -4 -0 -2 1 1 1 1 -1 3 -1 0 -0 3 3 5 2 2 -0 0 2 -1 0 1 -1 2 2 1
1 -0 2 0 1 -1 -1 -1 -2 -7 6 2 -5 -3 -0 -1 -0 -4 -1 1 0 2 2 -3 -1 -3 1 0 2 -1 1 -2 -3 0 0 -5 -3 1 1 1 3 2 1 3 1 1 -0 1 1
1 3 -2 3 1 -1 -0 -2 -2 1 -1 3 -2 2 1 -8 5 -4 1 1 0 0 5 0 -0 -2 -2 -0 -1 1 -2 2 3 -0 1 1 2 3 1 0 5 0 1 -0 1 -1 1 0 -0
1 0 -2 -0 -3 -1 -4 -2 1 1 -1 -2 6 -3 3 5 2 4 -1 1 2 2 2 3 -0 -1 -0 -1 -2 -1 -0 -2 -1 -1 1 2 3 1 -0 0 1 1 -1 1 0 1 1 0 1
1 -1 1 1 -1 -1 3 1 2 -2 -1 -1 -8 1 -4 -13 3 4 -1 2 3 3 1 -0 1 -1 -3 0 0 -0 0 -2 -2 0 -5 0 2 1 1 1 1 3 0 2 1 -1 2 0 4
0 1 -0 -1 0 0 -2 0 2 1 -0 -1 -8 5 2 -10 1 3 -1 3 2 0 2 1 1 -0 -0 1 2 -0 -1 0 -0 -1 -2 1 0 0 1 1 -0 0 0 0 3 2 1 -2 -0
-1 3 1 -0 -0 -3 -2 -3 -1 4 -2 1 -2 -0 4 -3 -7 -0 -1 -3 2 3 -4 1 0 2 0 1 2 1 0 -2 -1 1 -1 -0 2 0 -1 -0 0 2 2 -1 2 2 -1 2 0
-2 1 -2 2 2 2 -2 -6 -2 -3 -0 0 1 -4 -2 -1 1 -8 1 -6 0 -0 -1 -0 1 -0 -0 2 1 4 1 -1 0 1 -1 1 -3 1 1 0 2 1 2 1 4 2 -0 1 -0
1 -1 -4 -2 3 2 6 -0 2 -3 -1 -1 -0 -4 -1 -5 -0 3 -3 0 -5 -1 -1 -1 1 2 2 3 1 -1 -0 -3 -1 1 1 1 1 1 2 -0 0 -1 0 -1 2 0 1 0 0
-1 -2 -1 -1 -3 -3 2 -5 1 -3 -1 3 1 -1 -2 -4 1 -4 2 0 -1 0 -2 -1 -0 -1 2 2 5 3 2 3 1 0 -1 -1 1 1 1 1 1 -0 1 0 1 1 2 1 2
-1 -1 -3 -3 -1 -3 -0 -2 -2 -7 0 1 -1 -3 -2 0 -1 3 -2 -4 -3 3 1 -2 -2 -2 -2 1 -0 2 1 1 2 1 0 -0 -1 -0 -0 1 0 -0 -1 -2 1 1 2 0 1
-0 -1 -1 -4 -0 1 1 -3 -0 -7 -7 -0 3 3 -0 2 -2 -4 2 -0 -3 6 2 4 -0 -1 -2 -2 1 1 2 3 2 0 2 2 0 -0 0 2 0 0 -0 -1 1 1 0 -0 0
3 -0 -1 -1 -4 -3 2 3 2 -1 -6 -9 -0 6 2 -2 3 -5 0 -1 -3 -3 -4 1 3 1 -2 -2 -3 1 -2 0 2 2 -2 -1 -1 1 2 0 -1 -0 -1 -1 0 -1 -0 0 0
1 1 -1 -1 -3 -2 -6 -0 9 -8 -3 -3 -6 -0 5 0 1 -5 20 4 0 2 -0 -3 0 3 2 -1 -1 -1 3 3 2 2 1 -1 -1 1 0 0 2 0 -0 -0 -0 -1 0 1 -0
-0 1 1 1 2 4 2 0 -7 -5 -0 1 3 -1 -4 2 -8 -8 4 17 6 -1 -1 7 0 2 5 2 1 0 0 0 3 2 2 2 0 -1 -0 0 2 1 1 1 1 -0 -4 -4 -1
-2 1 2 2 2 1 -1 -1 -9 1 -1 0 1 2 -0 -2 4 -1 -5 3 -26 1 -2 1 6 2 4 4 -2 1 3 1 0 3 3 3 2 2 -0 -1 -1 1 1 3 5 2 1 -0 -0
1 -1 1 2 5 -1 -4 -5 -10 -5 -2 1 0 3 4 -2 3 2 3 -11 2 0 -8 -1 9 5 -0 7 1 1 4 2 3 2 4 5 5 3 3 1 1 -0 -0 -1 0 2 -1 3 1
0 -1 -2 -3 -1 -3 -0 -5 3 -5 -4 -0 -3 -1 3 2 -3 -1 -5 -2 0 5 0 -3 -5 -0 -1 -2 1 4 2 2 -3 -1 -3 1 3 3 2 2 2 0 -1 -1 -1 0 2 1 -1
1 -1 -0 0 -2 -1 -0 -3 2 -4 -2 -6 3 1 -1 4 3 5 9 -10 -1 4 -4 5 -2 0 1 2 -1 -4 3 -3 -1 2 2 -2 1 2 2 1 2 1 -0 -0 -0 1 1 7 1
-1 -0 0 -1 -0 4 1 -2 3 -3 -3 -1 -7 -5 -1 -4 -0 1 2 2 1 -4 -6 9 -2 -8 -2 0 -4 -2 -1 -4 -4 -0 -3 -2 -4 -1 3 2 1 3 2 -1 -1 3 9 10 6
-1 3 2 0 0 1 0 -3 -1 -3 -2 -2 -2 1 -2 -7 -6 -3 -0 -4 -7 -3 2 -8 -7 7 5 -3 3 1 1 0 3 -4 -2 -3 -3 -2 -1 1 2 1 3 2 4 16 10 10 6
1 1 2 -5 -1 2 1 -2 1 -1 2 1 1 -2 -3 -6 -7 -5 -5 -4 2 3 -6 2 6 -3 1 1 -1 1 5 0 -1 -6 -4 -2 -3 -5 -3 -0 1 -0 1 3 6 3 1 23 11
-0 0 0 -1 3 2 1 -1 0 -1 0 0 1 2 2 -5 -5 -4 -2 -2 -7 -5 -5 -4 -3 1 4 6 -4 1 4 2 -3 -1 1 0 3 -0 -4 -3 1 -2 1 -2 -1 4 3 14 3
-5 -1 -1 -1 -6 -3 -0 0 -0 -2 -2 1 2 4 3 -2 -0 -1 -1 -0 -2 -5 -0 -0 -2 11 -3 2 -4 -1 -9 6 5 2 2 4 0 2 -1 -4 0 1 -1 1 1 0 3 1 6
2 -5 -4 1 -1 -3 -2 -0 2 -5 -1 2 0 -2 3 4 -1 -3 -1 -1 0 -4 -4 -1 -3 -1 6 2 2 -0 -1 2 4 -6 -10 -1 1 -2 1 1 1 -2 -0 -1 1 1 2 2 0
-1 -4 -3 -4 -2 -2 -7 -2 -2 -1 -2 -2 2 0 1 2 3 -1 -6 -6 -6 1 -12 -2 -8 -5 -5 5 -4 -3 -3 0 1 -5 -6 -2 -0 2 2 -1 2 4 -1 -2 -0 1 -0 -1 3
Height
5891 5891 5889 5888 5890 5882 5881 5878 5877 5876 5876 5874 5874 5872 5871 5869 5866 5866 5862 5861 5860 5860 5858 5859 5858 5857 5858 5860 5862 5865 5867 5872 5876 5880 5883 5886 5888 5892 5895 5898 5900 5901 5904 5907 5908 5910 5913 5915 5916
5892 5892 5890 5891 5889 5887 5884 5880 5879 5877 5876 5874 5874 5873 5873 5871 5868 5866 5862 5863 5861 5861 5861 5862 5861 5860 5859 5859 5862 5866 5869 5874 5877 5880 5883 5887 5891 5893 5896 5899 5901 5903 5906 5909 5910 5912 5914 5916 5918
5891 5892 5895 5895 5892 5889 5887 5883 5880 5881 5879 5875 5875 5875 5876 5874 5871 5868 5864 5863 5863 5863 5864 5864 5863 5861 5861 5859 5862 5866 5871 5875 5878 5881 5886 5890 5894 5895 5897 5900 5902 5904 5907 5910 5912 5914 5916 5918 5920
5892 5893 5894 5890 5889 5892 5890 5887 5884 5883 5879 5876 5877 5876 5879 5877 5873 5870 5867 5865 5865 5865 5865 5865 5866 5865 5865 5866 5868 5869 5871 5876 5881 5884 5888 5891 5895 5896 5898 5901 5903 5905 5908 5910 5913 5915 5917 5919 5922
5894 5893 5891 5888 5889 5890 5890 5889 5886 5885 5882 5880 5880 5879 5880 5879 5876 5874 5871 5869 5866 5865 5865 5865 5866 5868 5869 5870 5872 5873 5876 5879 5882 5886 5890 5893 5896 5898 5900 5902 5904 5907 5910 5912 5914 5916 5918 5921 5923
5894 5893 5892 5888 5889 5889 5889 5890 5890 5889 5890 5886 5884 5881 5881 5881 5879 5877 5874 5871 5869 5866 5864 5864 5866 5868 5870 5872 5874 5876 5879 5881 5884 5887 5891 5895 5897 5899 5901 5903 5905 5908 5911 5913 5915 5917 5920 5922 5924
5894 5894 5892 5889 5891 5892 5891 5888 5889 5890 5890 5889 5887 5886 5884 5883 5882 5880 5877 5874 5872 5869 5865 5865 5866 5868 5871 5874 5875 5878 5880 5884 5887 5890 5893 5897 5898 5901 5903 5905 5906 5909 5912 5914 5916 5919 5922 5923 5925
5896 5894 5892 5892 5891 5892 5890 5890 5889 5890 5890 5888 5888 5887 5887 5886 5885 5883 5880 5878 5875 5871 5865 5866 5868 5869 5870 5874 5877 5879 5882 5885 5888 5891 5894 5896 5899 5902 5904 5905 5907 5911 5914 5915 5917 5919 5922 5924 5926
5896 5896 5894 5892 5890 5892 5892 5891 5890 5890 5890 5888 5888 5886 5887 5882 5885 5885 5882 5881 5878 5874 5867 5868 5870 5871 5872 5874 5878 5881 5883 5885 5888 5891 5893 5896 5898 5902 5903 5905 5908 5911 5914 5916 5918 5920 5923 5924 5926
5899 5898 5895 5894 5893 5892 5892 5891 5891 5892 5890 5889 5888 5891 5887 5882 5883 5887 5884 5883 5881 5878 5874 5872 5872 5874 5875 5876 5878 5881 5883 5886 5888 5890 5893 5895 5898 5901 5903 5905 5908 5910 5913 5916 5918 5920 5922 5923 5925
5899 5899 5897 5895 5893 5891 5891 5891 5890 5890 5888 5888 5888 5889 5887 5887 5881 5885 5885 5883 5883 5882 5880 5877 5876 5877 5878 5878 5880 5882 5884 5887 5889 5891 5892 5895 5898 5900 5902 5904 5907 5909 5912 5915 5917 5919 5922 5923 5925
5900 5899 5897 5896 5894 5892 5889 5889 5888 5888 5887 5886 5887 5887 5886 5883 5885 5884 5888 5885 5884 5885 5884 5882 5881 5880 5881 5881 5881 5882 5884 5886 5887 5889 5891 5893 5896 5899 5901 5903 5905 5908 5911 5914 5915 5917 5920 5922 5924
5898 5898 5897 5896 5894 5893 5891 5889 5887 5885 5884 5884 5885 5885 5884 5884 5887 5888 5889 5888 5886 5887 5886 5886 5885 5884 5883 5883 5883 5884 5885 5885 5886 5888 5889 5892 5894 5897 5899 5901 5904 5906 5909 5912 5914 5916 5918 5920 5922
5892 5893 5893 5894 5893 5892 5890 5887 5887 5885 5884 5882 5882 5883 5884 5885 5885 5887 5888 5890 5889 5888 5887 5887 5887 5886 5885 5884 5883 5884 5884 5885 5885 5886 5887 5890 5892 5895 5897 5899 5902 5904 5907 5910 5913 5915 5917 5920 5922
5891 5889 5889 5889 5890 5890 5887 5885 5883 5884 5884 5882 5881 5882 5883 5885 5884 5885 5888 5889 5892 5891 5889 5888 5887 5888 5887 5885 5884 5883 5884 5882 5884 5885 5886 5887 5889 5892 5894 5896 5899 5901 5904 5907 5909 5912 5914 5916 5918
5890 5887 5885 5885 5885 5886 5885 5881 5878 5877 5880 5881 5880 5882 5883 5883 5883 5883 5886 5887 5889 5890 5891 5890 5889 5888 5888 5887 5886 5884 5884 5883 5882 5881 5881 5884 5887 5889 5891 5893 5895 5898 5900 5903 5905 5908 5911 5913 5916
5888 5886 5884 5883 5882 5883 5882 5879 5876 5875 5874 5876 5879 5879 5881 5881 5882 5881 5882 5884 5885 5886 5887 5888 5889 5889 5889 5889 5887 5886 5884 5883 5883 5882 5882 5882 5883 5886 5888 5891 5892 5895 5897 5899 5902 5904 5906 5909 5911
5884 5883 5881 5880 5880 5877 5879 5879 5876 5871 5869 5869 5871 5876 5877 5878 5881 5879 5878 5877 5881 5884 5885 5885 5887 5888 5889 5888 5888 5888 5886 5884 5884 5883 5882 5882 5881 5885 5887 5889 5892 5893 5895 5897 5899 5899 5901 5904 5906
5882 5880 5879 5878 5878 5877 5875 5873 5870 5870 5869 5867 5868 5871 5874 5874 5873 5875 5873 5868 5876 5877 5882 5883 5885 5886 5887 5887 5887 5888 5888 5886 5885 5884 5883 5882 5883 5885 5886 5887 5888 5889 5890 5892 5894 5895 5897 5899 5902
5878 5878 5877 5875 5875 5875 5873 5870 5866 5868 5866 5866 5865 5864 5868 5870 5870 5871 5872 5872 5873 5874 5876 5880 5882 5884 5884 5884 5885 5886 5887 5886 5886 5885 5884 5884 5884 5884 5885 5885 5887 5887 5888 5889 5890 5891 5892 5894 5896
5874 5875 5874 5874 5871 5869 5867 5865 5860 5865 5864 5863 5862 5861 5860 5862 5864 5865 5866 5868 5870 5871 5871 5874 5874 5876 5879 5880 5880 5883 5885 5884 5884 5883 5882 5882 5884 5883 5883 5884 5885 5885 5885 5886 5887 5887 5888 5890 5891
5872 5871 5869 5868 5868 5865 5862 5863 5861 5860 5860 5859 5857 5856 5855 5854 5856 5857 5857 5859 5860 5864 5865 5866 5868 5869 5871 5873 5874 5878 5879 5881 5881 5880 5880 5879 5880 5880 5881 5882 5882 5882 5881 5882 5881 5883 5883 5885 5886
5869 5866 5864 5863 5862 5861 5859 5858 5856 5853 5853 5853 5853 5851 5850 5850 5850 5850 5850 5850 5855 5855 5858 5861 5862 5864 5865 5867 5869 5870 5872 5874 5876 5877 5875 5875 5876 5877 5878 5878 5879 5878 5877 5876 5876 5877 5879 5880 5881
5861 5859 5857 5856 5856 5858 5855 5852 5852 5850 5847 5846 5845 5846 5844 5844 5843 5842 5842 5842 5842 5845 5847 5851 5854 5857 5859 5862 5865 5865 5867 5867 5869 5872 5872 5871 5872 5873 5875 5876 5875 5874 5873 5873 5872 5872 5873 5874 5875
5856 5855 5853 5852 5851 5851 5848 5846 5845 5843 5842 5840 5839 5837 5836 5836 5835 5835 5833 5833 5834 5832 5833 5838 5845 5849 5852 5856 5858 5862 5863 5863 5864 5866 5868 5869 5870 5870 5871 5871 5872 5871 5870 5868 5868 5865 5864 5865 5866
5851 5849 5848 5844 5843 5841 5839 5838 5837 5836 5834 5833 5833 5831 5828 5825 5824 5823 5822 5821 5823 5819 5817 5822 5829 5835 5840 5843 5848 5852 5855 5858 5859 5861 5863 5866 5866 5867 5867 5866 5866 5867 5867 5866 5861 5859 5857 5854 5850
5844 5840 5839 5837 5836 5833 5832 5831 5830 5829 5828 5826 5825 5822 5819 5817 5814 5812 5811 5810 5809 5809 5802 5804 5812 5819 5826 5832 5836 5841 5845 5849 5854 5855 5857 5860 5860 5861 5863 5863 5862 5862 5863 5863 5859 5856 5854 5853 5855
5838 5835 5833 5830 5827 5824 5824 5823 5823 5821 5820 5819 5818 5816 5812 5809 5806 5804 5802 5801 5799 5798 5793 5793 5799 5806 5812 5818 5825 5831 5835 5841 5844 5848 5850 5852 5855 5854 5856 5858 5858 5858 5859 5859 5859 5856 5856 5855 5854
5835 5829 5826 5825 5822 5818 5815 5815 5816 5812 5813 5811 5809 5806 5804 5802 5798 5796 5794 5794 5792 5789 5786 5785 5788 5794 5800 5807 5814 5820 5826 5830 5835 5839 5844 5849 5849 5850 5852 5852 5854 5854 5854 5855 5855 5856 5855 5856 5855
5825 5821 5819 5818 5817 5813 5808 5806 5808 5804 5802 5801 5801 5798 5794 5791 5789 5787 5785 5783 5782 5782 5781 5779 5780 5784 5789 5797 5803 5810 5814 5819 5824 5830 5832 5839 5841 5842 5843 5845 5849 5849 5849 5850 5852 5852 5853 5854 5854